Вернуться в каталог

STARLINK-33960

АктивенСвязьVLEO
NORAD 63966·PAYLOAD·🇺🇸 United States

Запущен May 13, 2025 с Cape Canaveral Space Force Station

Loading…

Ближайшие Пролёты (ближайшие 24 часа)

TLE

СвежийSource: CelesTrak SupGP

Эпоха: Sep 14, 2026, 20:48 UTC

1 63966C 25099Q   26257.86715278  .00012750  00000+0  46177-3 0  2570
2 63966  43.0004 187.6063 0001353 264.9831   9.8597 15.27574816    14

Отслеживайте STARLINK-33960 в реальном времени с AllMySat

Download on the App Store